,,Stat6,,Stat2,,Stat8,,Stat9,,Stat10,,Wind1,,Wind1,
time,status,PA1M_AVG,status,PR1M_SUM,status,RH1M_AVG,status,SR1M_AVG,status,TA1M_AVG,status,W1dAve1m,status,W1sAve1m,
2006-11-08, 07:00:01,VALID,917.7,VALID,0,VALID,100,VALID,-0.0169808,VALID,18.6659,VALID,1,VALID,0.331845,
2006-11-08, 07:01:00,VALID,917.689,VALID,0,VALID,100,VALID,-0.0509425,VALID,18.6731,VALID,359,VALID,0.668341,
2006-11-08, 07:02:00,VALID,917.69,VALID,0,VALID,100,VALID,-0.0339617,VALID,18.6537,VALID,359,VALID,0.575076,
2006-11-08, 07:03:00,VALID,917.672,VALID,0,VALID,100,VALID,-0.0679233,VALID,18.6408,VALID,355,VALID,0.733594,
2006-11-08, 07:04:00,VALID,917.656,VALID,0,VALID,100,VALID,-0.0339617,VALID,18.657,VALID,336,VALID,0.916016,
2006-11-08, 07:05:00,VALID,917.647,VALID,0,VALID,100,VALID,0,VALID,18.683,VALID,316,VALID,0.903088,
2006-11-08, 07:06:00,VALID,917.638,VALID,0,VALID,100,VALID,0,VALID,18.6763,VALID,313,VALID,1.03354,
2006-11-08, 07:07:00,VALID,917.629,VALID,0,VALID,100,VALID,-0.0509425,VALID,18.657,VALID,307,VALID,0.931141,
2006-11-08, 07:08:00,VALID,917.625,VALID,0,VALID,100,VALID,-0.0509425,VALID,18.6381,VALID,308,VALID,1.12287,
2006-11-08, 07:09:00,VALID,917.611,VALID,0,VALID,100,VALID,-0.0339617,VALID,18.6058,VALID,313,VALID,1.13815,
2006-11-08, 07:10:00,VALID,917.615,VALID,0,VALID,100,VALID,0,VALID,18.5924,VALID,319,VALID,0.924107,
2006-11-08, 07:11:00,VALID,917.614,VALID,0,VALID,100,VALID,-0.0509425,VALID,18.5733,VALID,326,VALID,0.758575,
2006-11-08, 07:12:00,VALID,917.615,VALID,0,VALID,100,VALID,0,VALID,18.5274,VALID,341,VALID,0.662946,
2006-11-08, 07:13:00,VALID,917.607,VALID,0,VALID,100,VALID,0,VALID,18.5279,VALID,335,VALID,0.410247,
2006-11-08, 07:14:00,VALID,917.6,VALID,0,VALID,100,VALID,-0.0509425,VALID,18.5316,VALID,330,VALID,0.315952,
2006-11-08, 07:15:00,VALID,917.609,VALID,0,VALID,100,VALID,-0.0169808,VALID,18.5311,VALID,316,VALID,0.437128,
2006-11-08, 07:16:00,VALID,917.608,VALID,0,VALID,100,VALID,-0.0169808,VALID,18.5574,VALID,289,VALID,0.514863,
2006-11-08, 07:17:00,VALID,917.629,VALID,0,VALID,100,VALID,-0.0339617,VALID,18.5341,VALID,302,VALID,0.694957,
2006-11-08, 07:18:00,VALID,917.631,VALID,0,VALID,100,VALID,-0.0169808,VALID,18.538,VALID,323,VALID,0.634629,
2006-11-08, 07:19:00,VALID,917.653,VALID,0,VALID,100,VALID,-0.0169808,VALID,18.5283,VALID,331,VALID,0.748547,
2006-11-08, 07:20:00,VALID,917.655,VALID,0,VALID,100,VALID,-0.0509425,VALID,18.5217,VALID,337,VALID,0.653446,
2006-11-08, 07:21:00,VALID,917.658,VALID,0,VALID,100,VALID,0,VALID,18.5182,VALID,335,VALID,0.787972,
2006-11-08, 07:22:00,VALID,917.667,VALID,0,VALID,100,VALID,-0.0339617,VALID,18.5217,VALID,330,VALID,0.674079,
2006-11-08, 07:23:00,VALID,917.683,VALID,0,VALID,100,VALID,-0.0509425,VALID,18.5346,VALID,305,VALID,0.917683,
2006-11-08, 07:24:00,VALID,917.692,VALID,0,VALID,100,VALID,-0.0849042,VALID,18.5479,VALID,295,VALID,0.863451,
2006-11-08, 07:25:00,VALID,917.685,VALID,0,VALID,100,VALID,-0.0509425,VALID,18.5542,VALID,283,VALID,0.82641,
2006-11-08, 07:26:00,VALID,917.68,VALID,0,VALID,100,VALID,-0.101885,VALID,18.5834,VALID,283,VALID,0.822798,
2006-11-08, 07:27:00,VALID,917.674,VALID,0,VALID,100,VALID,-0.0339617,VALID,18.5703,VALID,283,VALID,0.995821,
2006-11-08, 07:28:00,VALID,917.675,VALID,0,VALID,100,VALID,-0.0169808,VALID,18.5668,VALID,286,VALID,0.926136,
2006-11-08, 07:29:00,VALID,917.66,VALID,0,VALID,100,VALID,-0.0509425,VALID,18.5606,VALID,288,VALID,0.857376,
2006-11-08, 07:30:00,VALID,917.646,VALID,0,VALID,100,VALID,-0.0509425,VALID,18.5606,VALID,305,VALID,0.875,
2006-11-08, 07:31:00,VALID,917.654,VALID,0,VALID,100,VALID,-0.0169808,VALID,18.5574,VALID,306,VALID,0.750533,
2006-11-08, 07:32:00,VALID,917.639,VALID,0,VALID,100,VALID,-0.0339617,VALID,18.5606,VALID,310,VALID,0.926525,
2006-11-08, 07:33:00,VALID,917.647,VALID,0,VALID,100,VALID,-0.0169808,VALID,18.5572,VALID,312,VALID,0.705487,
2006-11-08, 07:34:00,VALID,917.647,VALID,0,VALID,100,VALID,-0.0679233,VALID,18.5703,VALID,313,VALID,0.529297,
2006-11-08, 07:35:00,VALID,917.637,VALID,0,VALID,100,VALID,-0.0509425,VALID,18.5602,VALID,316,VALID,0.56359,
2006-11-08, 07:36:00,VALID,917.626,VALID,0,VALID,100,VALID,-0.0509425,VALID,18.5415,VALID,316,VALID,0.17081,
2006-11-08, 07:37:00,VALID,917.625,VALID,0,VALID,100,VALID,0.0339617,VALID,18.5274,VALID,316,VALID,0.0823864,
2006-11-08, 07:38:00,VALID,917.6,VALID,0,VALID,100,VALID,0,VALID,18.5311,VALID,316,VALID,0.204688,
2006-11-08, 07:39:00,VALID,917.606,VALID,0,VALID,100,VALID,0,VALID,18.5177,VALID,316,VALID,0.0853516,
2006-11-08, 07:40:00,VALID,917.598,VALID,0,VALID,100,VALID,0,VALID,18.515,VALID,316,VALID,0,
2006-11-08, 07:41:00,VALID,917.605,VALID,0,VALID,100,VALID,-0.0339617,VALID,18.5182,VALID,316,VALID,0.102148,
2006-11-08, 07:42:00,VALID,917.617,VALID,0,VALID,100,VALID,-0.0169808,VALID,18.5083,VALID,316,VALID,0.362216,
2006-11-08, 07:43:00,VALID,917.614,VALID,0,VALID,100,VALID,-0.0169808,VALID,18.5313,VALID,325,VALID,0.304142,
2006-11-08, 07:44:00,VALID,917.625,VALID,0,VALID,100,VALID,-0.0169808,VALID,18.5113,VALID,339,VALID,0.439918,
2006-11-08, 07:45:00,VALID,917.623,VALID,0,VALID,100,VALID,0,VALID,18.5219,VALID,2,VALID,0.148983,
2006-11-08, 07:46:00,VALID,917.633,VALID,0,VALID,100,VALID,0,VALID,18.4951,VALID,2,VALID,0.0161966,
2006-11-08, 07:47:00,VALID,917.632,VALID,0,VALID,100,VALID,0,VALID,18.4949,VALID,59,VALID,0.421303,
2006-11-08, 07:48:00,VALID,917.643,VALID,0,VALID,100,VALID,-0.0169808,VALID,18.4986,VALID,61,VALID,0.0900213,
2006-11-08, 07:49:00,VALID,917.638,VALID,0,VALID,100,VALID,-0.0169808,VALID,18.5085,VALID,61,VALID,0,
2006-11-08, 07:50:00,VALID,917.632,VALID,0,VALID,100,VALID,0,VALID,18.5016,VALID,61,VALID,0.0341082,
2006-11-08, 07:51:00,VALID,917.629,VALID,0,VALID,100,VALID,0,VALID,18.515,VALID,61,VALID,0.258956,
2006-11-08, 07:52:00,VALID,917.638,VALID,0,VALID,100,VALID,0,VALID,18.5147,VALID,61,VALID,0.354167,
2006-11-08, 07:53:00,VALID,917.621,VALID,0,VALID,100,VALID,-0.0169808,VALID,18.5247,VALID,112,VALID,0.522879,
2006-11-08, 07:54:00,VALID,917.609,VALID,0,VALID,100,VALID,-0.0169808,VALID,18.5244,VALID,141,VALID,0.432492,
2006-11-08, 07:55:00,VALID,917.609,VALID,0,VALID,100,VALID,0.0169808,VALID,18.5341,VALID,141,VALID,0.362424,
2006-11-08, 07:56:00,VALID,917.588,VALID,0,VALID,100,VALID,0,VALID,18.547,VALID,141,VALID,0.361235,
2006-11-08, 07:57:00,VALID,917.582,VALID,0,VALID,100,VALID,0.0169808,VALID,18.5502,VALID,141,VALID,0.35423,
2006-11-08, 07:58:00,VALID,917.565,VALID,0,VALID,100,VALID,0,VALID,18.5567,VALID,141,VALID,0.266387,
2006-11-08, 07:59:00,VALID,917.552,VALID,0,VALID,100,VALID,0,VALID,18.5433,VALID,141,VALID,0.21657,
2006-11-08, 08:00:00,VALID,917.541,VALID,0,VALID,100,VALID,0,VALID,18.5698,VALID,141,VALID,0.0486506,
2006-11-08, 08:01:00,VALID,917.523,VALID,0,VALID,100,VALID,0,VALID,18.5726,VALID,141,VALID,0,
2006-11-08, 08:02:00,VALID,917.518,VALID,0,VALID,100,VALID,-0.0339617,VALID,18.5696,VALID,141,VALID,0.0012429,
2006-11-08, 08:03:00,VALID,917.5,VALID,0,VALID,100,VALID,0.0169808,VALID,18.5698,VALID,141,VALID,0.15,
2006-11-08, 08:04:00,VALID,917.504,VALID,0,VALID,100,VALID,0,VALID,18.5442,VALID,141,VALID,0.385617,
2006-11-08, 08:05:00,VALID,917.488,VALID,0,VALID,100,VALID,0,VALID,18.5413,VALID,141,VALID,0.37832,
2006-11-08, 08:06:00,VALID,917.502,VALID,0,VALID,100,VALID,0,VALID,18.5346,VALID,141,VALID,0.204215,
2006-11-08, 08:07:00,VALID,917.51,VALID,0,VALID,100,VALID,0,VALID,18.5274,VALID,141,VALID,0.00457317,
2006-11-08, 08:08:00,VALID,917.524,VALID,0,VALID,100,VALID,0,VALID,18.5219,VALID,141,VALID,0,
2006-11-08, 08:09:00,VALID,917.526,VALID,0,VALID,100,VALID,-0.0169808,VALID,18.5279,VALID,141,VALID,0,
2006-11-08, 08:10:00,VALID,917.541,VALID,0,VALID,100,VALID,0,VALID,18.511,VALID,141,VALID,0,
2006-11-08, 08:11:00,VALID,917.543,VALID,0,VALID,100,VALID,0,VALID,18.5184,VALID,141,VALID,0,
2006-11-08, 08:12:00,VALID,917.531,VALID,0,VALID,100,VALID,-0.0169808,VALID,18.5247,VALID,141,VALID,0,
2006-11-08, 08:13:00,VALID,917.508,VALID,0,VALID,100,VALID,0,VALID,18.5113,VALID,141,VALID,0,
2006-11-08, 08:14:00,VALID,917.482,VALID,0,VALID,100,VALID,0,VALID,18.5309,VALID,141,VALID,0,
2006-11-08, 08:15:00,VALID,917.455,VALID,0,VALID,100,VALID,0,VALID,18.5279,VALID,141,VALID,0.0757631,
2006-11-08, 08:16:00,VALID,917.441,VALID,0,VALID,100,VALID,0,VALID,18.5177,VALID,141,VALID,0.0299479,
2006-11-08, 08:17:00,VALID,917.437,VALID,0,VALID,100,VALID,-0.0169808,VALID,18.515,VALID,141,VALID,0.0548651,
2006-11-08, 08:18:00,VALID,917.436,VALID,0,VALID,100,VALID,0,VALID,18.5115,VALID,141,VALID,0,
2006-11-08, 08:19:00,VALID,917.428,VALID,0,VALID,100,VALID,0,VALID,18.5051,VALID,141,VALID,0,
2006-11-08, 08:20:00,VALID,917.423,VALID,0,VALID,100,VALID,0,VALID,18.4924,VALID,141,VALID,0,
2006-11-08, 08:21:00,VALID,917.409,VALID,0,VALID,100,VALID,0.0169808,VALID,18.4825,VALID,141,VALID,0,
2006-11-08, 08:22:00,VALID,917.402,VALID,0,VALID,100,VALID,-0.101885,VALID,18.4779,VALID,141,VALID,0,
2006-11-08, 08:23:00,VALID,917.406,VALID,0,VALID,100,VALID,-0.101885,VALID,18.4739,VALID,141,VALID,0,
2006-11-08, 08:24:00,VALID,917.399,VALID,0,VALID,100,VALID,-0.101885,VALID,18.4645,VALID,141,VALID,0,
2006-11-08, 08:25:00,VALID,917.395,VALID,0,VALID,100,VALID,-0.101885,VALID,18.4553,VALID,141,VALID,0,
2006-11-08, 08:26:00,VALID,917.375,VALID,0,VALID,100,VALID,-0.118866,VALID,18.4394,VALID,141,VALID,0.00181686,
2006-11-08, 08:27:00,VALID,917.357,VALID,0,VALID,100,VALID,-0.101885,VALID,18.4126,VALID,141,VALID,0.0260417,
2006-11-08, 08:28:00,VALID,917.335,VALID,0,VALID,100,VALID,-0.101885,VALID,18.4198,VALID,141,VALID,0,
2006-11-08, 08:29:00,VALID,917.316,VALID,0,VALID,100,VALID,-0.101885,VALID,18.4,VALID,141,VALID,0,
2006-11-08, 08:30:00,VALID,917.292,VALID,0,VALID,100,VALID,-0.101885,VALID,18.3935,VALID,141,VALID,0,
2006-11-08, 08:31:00,VALID,917.279,VALID,0,VALID,100,VALID,-0.0849042,VALID,18.3811,VALID,141,VALID,0,
2006-11-08, 08:32:00,VALID,917.274,VALID,0,VALID,100,VALID,-0.101885,VALID,18.355,VALID,141,VALID,0,
2006-11-08, 08:33:00,VALID,917.266,VALID,0,VALID,100,VALID,-0.118866,VALID,18.3253,VALID,134,VALID,0.0596955,
2006-11-08, 08:34:00,VALID,917.261,VALID,0,VALID,100,VALID,-0.101885,VALID,18.3064,VALID,75,VALID,0.558036,
2006-11-08, 08:35:00,VALID,917.247,VALID,0,VALID,100,VALID,-0.101885,VALID,18.2739,VALID,51,VALID,0.614211,
2006-11-08, 08:36:00,VALID,917.248,VALID,0,VALID,100,VALID,-0.101885,VALID,18.2649,VALID,49,VALID,0.446733,
2006-11-08, 08:37:00,VALID,917.239,VALID,0,VALID,100,VALID,-0.0169808,VALID,18.27,VALID,49,VALID,0.38228,
2006-11-08, 08:38:00,VALID,917.226,VALID,0,VALID,100,VALID,-0.0339617,VALID,18.2796,VALID,49,VALID,0.20625,
2006-11-08, 08:39:00,VALID,917.221,VALID,0,VALID,100,VALID,0,VALID,18.2792,VALID,49,VALID,0.284412,
2006-11-08, 08:40:00,VALID,917.205,VALID,0,VALID,100,VALID,0,VALID,18.3022,VALID,49,VALID,0.274164,
2006-11-08, 08:41:00,VALID,917.208,VALID,0,VALID,100,VALID,0,VALID,18.3018,VALID,49,VALID,0.645089,
2006-11-08, 08:42:00,VALID,917.216,VALID,0,VALID,100,VALID,-0.0169808,VALID,18.3084,VALID,44,VALID,0.672408,
2006-11-08, 08:43:00,VALID,917.207,VALID,0,VALID,100,VALID,-0.0169808,VALID,18.3181,VALID,32,VALID,0.718395,
2006-11-08, 08:44:00,VALID,917.199,VALID,0,VALID,100,VALID,-0.0169808,VALID,18.2988,VALID,21,VALID,0.905382,
2006-11-08, 08:45:00,VALID,917.186,VALID,0,VALID,100,VALID,0,VALID,18.2953,VALID,4,VALID,0.900343,
2006-11-08, 08:46:00,VALID,917.178,VALID,0,VALID,100,VALID,0,VALID,18.3084,VALID,355,VALID,0.696094,
2006-11-08, 08:47:00,VALID,917.174,VALID,0,VALID,100,VALID,0,VALID,18.3119,VALID,350,VALID,0.584028,
2006-11-08, 08:48:00,VALID,917.176,VALID,0,VALID,100,VALID,-0.0169808,VALID,18.302,VALID,360,VALID,0.833203,
2006-11-08, 08:49:00,VALID,917.175,VALID,0,VALID,100,VALID,0,VALID,18.2958,VALID,358,VALID,0.444602,
2006-11-08, 08:50:00,VALID,917.177,VALID,0,VALID,100,VALID,-0.0169808,VALID,18.2955,VALID,328,VALID,0.615885,
2006-11-08, 08:51:00,VALID,917.179,VALID,0,VALID,100,VALID,0,VALID,18.2923,VALID,315,VALID,0.773438,
2006-11-08, 08:52:00,VALID,917.166,VALID,0,VALID,100,VALID,-0.0339617,VALID,18.2796,VALID,318,VALID,1.00038,
2006-11-08, 08:53:00,VALID,917.168,VALID,0,VALID,100,VALID,-0.0169808,VALID,18.2667,VALID,320,VALID,0.825465,
2006-11-08, 08:54:00,VALID,917.156,VALID,0,VALID,100,VALID,0,VALID,18.2836,VALID,320,VALID,0.383903,
2006-11-08, 08:55:00,VALID,917.146,VALID,0,VALID,100,VALID,-0.0169808,VALID,18.2407,VALID,332,VALID,0.388393,
2006-11-08, 08:56:00,VALID,917.125,VALID,0,VALID,100,VALID,0,VALID,18.2407,VALID,346,VALID,0.541481,
2006-11-08, 08:57:00,VALID,917.108,VALID,0,VALID,100,VALID,0,VALID,18.2508,VALID,351,VALID,0.58724,
2006-11-08, 08:58:00,VALID,917.103,VALID,0,VALID,100,VALID,0,VALID,18.2536,VALID,342,VALID,0.451079,
2006-11-08, 08:59:00,VALID,917.088,VALID,0,VALID,100,VALID,0,VALID,18.2534,VALID,346,VALID,0.384909,
2006-11-08, 09:00:00,VALID,917.088,VALID,0,VALID,100,VALID,0,VALID,18.263,VALID,351,VALID,0.308117,
2006-11-08, 09:01:00,VALID,917.075,VALID,0,VALID,100,VALID,0,VALID,18.27,VALID,351,VALID,0.328125,
2006-11-08, 09:02:00,VALID,917.069,VALID,0,VALID,100,VALID,0.0169808,VALID,18.2955,VALID,358,VALID,0.347747,
2006-11-08, 09:03:00,VALID,917.069,VALID,0,VALID,100,VALID,0,VALID,18.2988,VALID,16,VALID,0.735937,
2006-11-08, 09:04:00,VALID,917.056,VALID,0,VALID,100,VALID,0,VALID,18.3082,VALID,23,VALID,0.678299,
2006-11-08, 09:05:00,VALID,917.056,VALID,0,VALID,100,VALID,-0.0169808,VALID,18.3147,VALID,23,VALID,0.387386,
2006-11-08, 09:06:00,VALID,917.042,VALID,0,VALID,100,VALID,0,VALID,18.3278,VALID,23,VALID,0.792436,
2006-11-08, 09:07:00,VALID,917.034,VALID,0,VALID,100,VALID,0,VALID,18.3343,VALID,23,VALID,0.581931,
2006-11-08, 09:08:00,VALID,917.024,VALID,0,VALID,100,VALID,0.0169808,VALID,18.3407,VALID,23,VALID,0.56978,
2006-11-08, 09:09:00,VALID,917.032,VALID,0,VALID,100,VALID,0,VALID,18.3569,VALID,23,VALID,0.492543,
2006-11-08, 09:10:00,VALID,917.02,VALID,0,VALID,100,VALID,0,VALID,18.3767,VALID,23,VALID,0.292873,
2006-11-08, 09:11:00,VALID,917.006,VALID,0,VALID,100,VALID,0,VALID,18.3896,VALID,23,VALID,0.483347,
2006-11-08, 09:12:00,VALID,916.998,VALID,0,VALID,100,VALID,0,VALID,18.399,VALID,27,VALID,0.702363,
2006-11-08, 09:13:00,VALID,916.986,VALID,0,VALID,100,VALID,0.0169808,VALID,18.4085,VALID,36,VALID,0.782493,
2006-11-08, 09:14:00,VALID,916.983,VALID,0,VALID,100,VALID,0,VALID,18.4182,VALID,50,VALID,0.682813,
2006-11-08, 09:15:00,VALID,916.979,VALID,0,VALID,100,VALID,0.0169808,VALID,18.4248,VALID,50,VALID,0.887695,
2006-11-08, 09:16:00,VALID,916.956,VALID,0,VALID,100,VALID,0.0169808,VALID,18.4343,VALID,44,VALID,0.877148,
2006-11-08, 09:17:00,VALID,916.943,VALID,0,VALID,100,VALID,0,VALID,18.4408,VALID,42,VALID,0.753018,
2006-11-08, 09:18:00,VALID,916.924,VALID,0,VALID,100,VALID,0,VALID,18.4375,VALID,45,VALID,0.776042,
2006-11-08, 09:19:00,VALID,916.908,VALID,0,VALID,100,VALID,0,VALID,18.447,VALID,31,VALID,0.838141,
2006-11-08, 09:20:00,VALID,916.887,VALID,0,VALID,100,VALID,0,VALID,18.4437,VALID,32,VALID,0.839208,
2006-11-08, 09:21:00,VALID,916.865,VALID,0,VALID,100,VALID,0,VALID,18.4537,VALID,19,VALID,0.720465,
2006-11-08, 09:22:00,VALID,916.843,VALID,0,VALID,100,VALID,0.0169808,VALID,18.4539,VALID,14,VALID,0.356771,
2006-11-08, 09:23:00,VALID,916.839,VALID,0,VALID,100,VALID,0,VALID,18.4569,VALID,17,VALID,0.800223,
2006-11-08, 09:24:00,VALID,916.825,VALID,0,VALID,100,VALID,0,VALID,18.4539,VALID,19,VALID,0.61875,
2006-11-08, 09:25:00,VALID,916.831,VALID,0,VALID,100,VALID,-0.0169808,VALID,18.4599,VALID,19,VALID,0.432413,
2006-11-08, 09:26:00,VALID,916.819,VALID,0,VALID,100,VALID,0.0169808,VALID,18.4504,VALID,22,VALID,0.636009,
2006-11-08, 09:27:00,VALID,916.808,VALID,0,VALID,100,VALID,0,VALID,18.4534,VALID,21,VALID,0.572129,
2006-11-08, 09:28:00,VALID,916.801,VALID,0,VALID,100,VALID,0.0339617,VALID,18.4636,VALID,23,VALID,0.837695,
2006-11-08, 09:29:00,VALID,916.788,VALID,0,VALID,100,VALID,0,VALID,18.4596,VALID,36,VALID,1.01172,
2006-11-08, 09:30:00,VALID,916.785,VALID,0,VALID,100,VALID,0,VALID,18.4502,VALID,38,VALID,1.10361,
2006-11-08, 09:31:00,VALID,916.773,VALID,0,VALID,100,VALID,0,VALID,18.4636,VALID,40,VALID,1.09393,
2006-11-08, 09:32:00,VALID,916.77,VALID,0,VALID,100,VALID,-0.0169808,VALID,18.4668,VALID,35,VALID,0.954723,
2006-11-08, 09:33:00,VALID,916.769,VALID,0,VALID,100,VALID,0,VALID,18.4703,VALID,30,VALID,0.743459,
2006-11-08, 09:34:00,VALID,916.758,VALID,0,VALID,100,VALID,0.0169808,VALID,18.4693,VALID,29,VALID,0.638464,
2006-11-08, 09:35:00,VALID,916.763,VALID,0,VALID,100,VALID,0.0169808,VALID,18.4723,VALID,33,VALID,0.669922,
2006-11-08, 09:36:00,VALID,916.74,VALID,0,VALID,100,VALID,0,VALID,18.4795,VALID,35,VALID,0.866425,
2006-11-08, 09:37:00,VALID,916.738,VALID,0,VALID,100,VALID,0,VALID,18.4767,VALID,36,VALID,0.87551,
2006-11-08, 09:38:00,VALID,916.732,VALID,0,VALID,100,VALID,0,VALID,18.4767,VALID,37,VALID,0.805778,
2006-11-08, 09:39:00,VALID,916.729,VALID,0,VALID,100,VALID,0,VALID,18.4698,VALID,37,VALID,0.723586,
2006-11-08, 09:40:00,VALID,916.714,VALID,0,VALID,100,VALID,0.0169808,VALID,18.4864,VALID,37,VALID,0.720796,
2006-11-08, 09:41:00,VALID,916.72,VALID,0,VALID,100,VALID,0,VALID,18.4792,VALID,37,VALID,0.682231,
2006-11-08, 09:42:00,VALID,916.715,VALID,0,VALID,100,VALID,0,VALID,18.4859,VALID,37,VALID,0.68657,
2006-11-08, 09:43:00,VALID,916.714,VALID,0,VALID,100,VALID,0,VALID,18.4954,VALID,37,VALID,0.517756,
2006-11-08, 09:44:00,VALID,916.719,VALID,0,VALID,100,VALID,0,VALID,18.5051,VALID,37,VALID,0.509341,
2006-11-08, 09:45:00,VALID,916.71,VALID,0,VALID,100,VALID,0,VALID,18.5016,VALID,37,VALID,0.638719,
2006-11-08, 09:46:00,VALID,916.712,VALID,0,VALID,100,VALID,0.0339617,VALID,18.5113,VALID,37,VALID,0.698401,
2006-11-08, 09:47:00,VALID,916.701,VALID,0,VALID,100,VALID,-0.0169808,VALID,18.5083,VALID,37,VALID,0.624306,
2006-11-08, 09:48:00,VALID,916.686,VALID,0,VALID,100,VALID,0,VALID,18.5122,VALID,36,VALID,0.505907,
2006-11-08, 09:49:00,VALID,916.671,VALID,0,VALID,100,VALID,0.0169808,VALID,18.4991,VALID,33,VALID,0.705256,
2006-11-08, 09:50:00,VALID,916.653,VALID,0,VALID,100,VALID,0,VALID,18.5088,VALID,24,VALID,0.439406,
2006-11-08, 09:51:00,VALID,916.644,VALID,0,VALID,100,VALID,0,VALID,18.5154,VALID,24,VALID,0.534446,
2006-11-08, 09:52:00,VALID,916.638,VALID,0,VALID,100,VALID,0,VALID,18.4988,VALID,24,VALID,0.589286,
2006-11-08, 09:53:00,VALID,916.632,VALID,0,VALID,100,VALID,-0.0169808,VALID,18.4958,VALID,24,VALID,0.625744,
2006-11-08, 09:54:00,VALID,916.627,VALID,0,VALID,100,VALID,0,VALID,18.4792,VALID,24,VALID,0.648624,
2006-11-08, 09:55:00,VALID,916.635,VALID,0,VALID,100,VALID,-0.0169808,VALID,18.4666,VALID,23,VALID,0.572368,
2006-11-08, 09:56:00,VALID,916.643,VALID,0,VALID,100,VALID,0,VALID,18.4472,VALID,350,VALID,0.633557,
2006-11-08, 09:57:00,VALID,916.645,VALID,0,VALID,100,VALID,-0.0339617,VALID,18.4345,VALID,12,VALID,0.640039,
2006-11-08, 09:58:00,VALID,916.649,VALID,0,VALID,100,VALID,0,VALID,18.4216,VALID,15,VALID,0.711319,
2006-11-08, 09:59:00,VALID,916.659,VALID,0,VALID,100,VALID,0,VALID,18.4149,VALID,35,VALID,0.811166,
2006-11-08, 10:00:00,VALID,916.655,VALID,0,VALID,100,VALID,-0.0169808,VALID,18.4313,VALID,35,VALID,0.875,
2006-11-08, 10:01:00,VALID,916.649,VALID,0,VALID,100,VALID,-0.0339617,VALID,18.441,VALID,34,VALID,0.899554,
2006-11-08, 10:02:00,VALID,916.674,VALID,0,VALID,100,VALID,0,VALID,18.4375,VALID,35,VALID,0.888139,
2006-11-08, 10:03:00,VALID,916.68,VALID,0,VALID,100,VALID,-0.0169808,VALID,18.444,VALID,35,VALID,1.01508,
2006-11-08, 10:04:00,VALID,916.684,VALID,0,VALID,100,VALID,-0.0169808,VALID,18.4315,VALID,39,VALID,1.0119,
2006-11-08, 10:05:00,VALID,916.695,VALID,0,VALID,100,VALID,-0.0339617,VALID,18.4219,VALID,30,VALID,0.954268,
2006-11-08, 10:06:00,VALID,916.689,VALID,0,VALID,100,VALID,0,VALID,18.4059,VALID,21,VALID,1.29527,
2006-11-08, 10:07:00,VALID,916.704,VALID,0,VALID,100,VALID,0,VALID,18.3894,VALID,22,VALID,0.81108,
2006-11-08, 10:08:00,VALID,916.695,VALID,0,VALID,100,VALID,0,VALID,18.3797,VALID,26,VALID,0.979469,
2006-11-08, 10:09:00,VALID,916.7,VALID,0,VALID,100,VALID,0,VALID,18.3799,VALID,27,VALID,1.36381,
2006-11-08, 10:10:00,VALID,916.701,VALID,0,VALID,100,VALID,0,VALID,18.3732,VALID,35,VALID,0.732031,
2006-11-08, 10:11:00,VALID,916.711,VALID,0,VALID,100,VALID,0,VALID,18.3854,VALID,32,VALID,0.899182,
2006-11-08, 10:12:00,VALID,916.714,VALID,0,VALID,100,VALID,0,VALID,18.3926,VALID,32,VALID,0.735795,
2006-11-08, 10:13:00,VALID,916.722,VALID,0,VALID,100,VALID,0,VALID,18.4023,VALID,37,VALID,0.908458,
2006-11-08, 10:14:00,VALID,916.746,VALID,0,VALID,100,VALID,0,VALID,18.3794,VALID,31,VALID,0.599144,
2006-11-08, 10:15:00,VALID,916.755,VALID,0,VALID,100,VALID,0,VALID,18.373,VALID,25,VALID,0.80069,
2006-11-08, 10:16:00,VALID,916.76,VALID,0,VALID,100,VALID,0,VALID,18.3663,VALID,24,VALID,0.789608,
2006-11-08, 10:17:00,VALID,916.771,VALID,0,VALID,100,VALID,0,VALID,18.3698,VALID,36,VALID,1.09854,
2006-11-08, 10:18:00,VALID,916.759,VALID,0,VALID,100,VALID,0,VALID,18.37,VALID,39,VALID,0.710029,
2006-11-08, 10:19:00,VALID,916.757,VALID,0,VALID,100,VALID,-0.0169808,VALID,18.3668,VALID,38,VALID,0.894345,
2006-11-08, 10:20:00,VALID,916.761,VALID,0,VALID,100,VALID,0,VALID,18.3635,VALID,30,VALID,0.77077,
2006-11-08, 10:21:00,VALID,916.756,VALID,0,VALID,100,VALID,0.0169808,VALID,18.3702,VALID,34,VALID,0.922385,
2006-11-08, 10:22:00,VALID,916.758,VALID,0,VALID,100,VALID,-0.0169808,VALID,18.3732,VALID,35,VALID,0.784702,
2006-11-08, 10:23:00,VALID,916.753,VALID,0,VALID,100,VALID,0,VALID,18.3928,VALID,33,VALID,0.857013,
2006-11-08, 10:24:00,VALID,916.756,VALID,0,VALID,100,VALID,0,VALID,18.3894,VALID,35,VALID,0.691497,
2006-11-08, 10:25:00,VALID,916.757,VALID,0,VALID,100,VALID,0,VALID,18.3889,VALID,35,VALID,0.523256,
2006-11-08, 10:26:00,VALID,916.757,VALID,0,VALID,100,VALID,0,VALID,18.3956,VALID,37,VALID,0.460938,
2006-11-08, 10:27:00,VALID,916.76,VALID,0,VALID,100,VALID,0.0169808,VALID,18.3887,VALID,30,VALID,0.519717,
2006-11-08, 10:28:00,VALID,916.766,VALID,0,VALID,100,VALID,0,VALID,18.3958,VALID,39,VALID,0.600836,
2006-11-08, 10:29:00,VALID,916.765,VALID,0,VALID,100,VALID,0,VALID,18.3864,VALID,26,VALID,0.700763,
2006-11-08, 10:30:00,VALID,916.756,VALID,0,VALID,100,VALID,0,VALID,18.3633,VALID,16,VALID,0.338086,
2006-11-08, 10:31:00,VALID,916.753,VALID,0,VALID,100,VALID,-0.0169808,VALID,18.3769,VALID,16,VALID,0.18407,
2006-11-08, 10:32:00,VALID,916.75,VALID,0,VALID,100,VALID,0,VALID,18.3534,VALID,16,VALID,0.347124,
2006-11-08, 10:33:00,VALID,916.753,VALID,0,VALID,100,VALID,0,VALID,18.3534,VALID,16,VALID,0.313033,
2006-11-08, 10:34:00,VALID,916.757,VALID,0,VALID,100,VALID,0,VALID,18.3474,VALID,27,VALID,0.626042,
2006-11-08, 10:35:00,VALID,916.766,VALID,0,VALID,100,VALID,-0.0169808,VALID,18.3506,VALID,32,VALID,0.663318,
2006-11-08, 10:36:00,VALID,916.766,VALID,0,VALID,100,VALID,-0.0169808,VALID,18.3541,VALID,42,VALID,0.395008,
2006-11-08, 10:37:00,VALID,916.764,VALID,0,VALID,100,VALID,-0.0679233,VALID,18.3483,VALID,49,VALID,0.537287,
2006-11-08, 10:38:00,VALID,916.771,VALID,0,VALID,100,VALID,0,VALID,18.3218,VALID,50,VALID,0.677144,
2006-11-08, 10:39:00,VALID,916.77,VALID,0,VALID,100,VALID,-0.0339617,VALID,18.3191,VALID,59,VALID,0.583854,
2006-11-08, 10:40:00,VALID,916.786,VALID,0,VALID,100,VALID,-0.0849042,VALID,18.3091,VALID,59,VALID,0.574695,
2006-11-08, 10:41:00,VALID,916.777,VALID,0,VALID,100,VALID,-0.0679233,VALID,18.3094,VALID,42,VALID,0.705602,
2006-11-08, 10:42:00,VALID,916.785,VALID,0,VALID,100,VALID,-0.0509425,VALID,18.3059,VALID,37,VALID,0.455031,
2006-11-08, 10:43:00,VALID,916.784,VALID,0,VALID,100,VALID,-0.0679233,VALID,18.3029,VALID,35,VALID,0.566406,
2006-11-08, 10:44:00,VALID,916.784,VALID,0,VALID,100,VALID,-0.0169808,VALID,18.2863,VALID,29,VALID,0.485119,
2006-11-08, 10:45:00,VALID,916.778,VALID,0,VALID,100,VALID,-0.0339617,VALID,18.2771,VALID,37,VALID,0.569041,
2006-11-08, 10:46:00,VALID,916.767,VALID,0,VALID,100,VALID,-0.0509425,VALID,18.284,VALID,37,VALID,0.683689,